CDT,Max TemperatureF,Mean TemperatureF,Min TemperatureF,Max Dew PointF,MeanDew PointF,Min DewpointF,Max Humidity, Mean Humidity, Min Humidity, Max Sea Level PressureIn, Mean Sea Level PressureIn, Min Sea Level PressureIn, Max VisibilityMiles, Mean VisibilityMiles, Min VisibilityMiles, Max Wind SpeedMPH, Mean Wind SpeedMPH, Max Gust SpeedMPH,PrecipitationIn, CloudCover, Events, WindDirDegrees
2012-9-1,95,82,71,78,73,69,100,84,44,30.20,30.15,30.07,10,4,0,9,0,,0.00,3,Fog,212
2012-9-2,93,82,71,75,72,70,94,80,50,30.12,30.06,29.99,10,7,0,14,2,21,0.00,3,Fog-Rain-Thunderstorm,248
2012-9-3,91,82,73,77,74,71,94,81,55,30.06,30.00,29.95,10,8,5,12,3,16,0.01,3,Rain-Thunderstorm,228
2012-9-4,80,76,71,77,73,70,96,92,83,30.04,29.96,29.87,10,5,0,10,3,20,2.18,7,Fog-Rain-Thunderstorm,130
2012-9-5,84,78,73,75,73,72,96,89,67,29.92,29.88,29.85,10,7,1,12,4,17,0.15,7,Rain-Thunderstorm,157
2012-9-6,91,82,73,75,72,71,96,83,55,29.98,29.94,29.90,10,8,2,9,3,16,0.00,3,,131
2012-9-7,91,80,69,75,71,68,100,84,50,29.99,29.93,29.85,10,5,0,10,1,,0.00,3,Fog-Rain,151
2012-9-8,93,82,72,77,72,70,94,79,52,29.90,29.84,29.76,10,8,2,8,3,16,0.02,4,Rain-Thunderstorm,346
2012-9-9,86,76,66,70,61,56,87,63,38,30.02,29.96,29.87,10,10,10,10,5,17,0.00,1,,347
2012-9-10,89,74,59,66,61,56,93,70,40,30.09,30.05,30.02,10,10,9,7,3,,0.00,1,,31
2012-9-11,88,73,59,65,61,57,93,69,40,30.19,30.14,30.08,10,10,8,12,2,18,0.00,2,,60
2012-9-12,87,78,69,68,65,63,84,68,48,30.22,30.16,30.13,10,10,10,12,4,17,0.00,2,,67
2012-9-13,89,78,68,67,65,62,90,69,43,30.22,30.16,30.11,10,10,10,10,3,,0.00,1,,58
2012-9-14,90,78,66,68,65,63,90,68,42,30.17,30.13,30.09,10,10,9,10,4,17,0.00,2,,38
2012-9-15,91,80,68,71,68,65,90,71,45,30.14,30.09,30.04,10,10,10,9,3,,0.00,4,,77
2012-9-16,91,79,68,74,70,66,93,78,50,30.07,30.03,29.98,10,9,4,9,2,,0.00,2,Rain,85
2012-9-17,79,74,70,75,72,68,94,92,83,29.99,29.90,29.79,10,6,0,10,3,20,1.28,6,Fog-Rain-Thunderstorm,125
2012-9-18,86,78,71,73,71,64,94,83,54,29.97,29.80,29.75,10,9,1,15,6,30,0.52,3,Rain-Thunderstorm,251
2012-9-19,84,72,61,67,61,57,93,72,46,30.08,30.02,29.96,10,9,6,8,4,,0.00,0,,353
2012-9-20,88,72,57,64,59,55,90,68,39,30.10,30.05,30.00,10,10,10,8,1,,0.00,0,,4
2012-9-21,90,74,59,69,63,57,100,80,42,30.07,30.03,29.98,10,7,0,8,2,,0.00,2,Fog,50
2012-9-22,91,76,62,70,65,59,93,73,38,30.09,30.05,30.01,10,8,4,9,2,,0.00,0,,339
2012-9-23,91,77,64,65,59,51,93,63,26,30.17,30.12,30.08,10,9,4,8,3,,0.00,0,,19
2012-9-24,86,70,54,62,55,50,90,62,31,30.20,30.14,30.09,10,10,10,6,3,,0.00,0,,25
2012-9-25,89,68,48,62,53,46,93,66,25,30.17,30.13,30.09,10,10,10,8,1,,0.00,0,,72
2012-9-26,90,74,60,68,63,57,90,71,44,30.17,30.13,30.09,10,10,7,8,2,,0.00,2,,111
2012-9-27,91,76,62,71,66,60,93,75,43,30.17,30.11,30.06,10,9,6,7,1,,0.00,1,,83
2012-9-28,91,76,64,72,67,62,94,77,43,30.11,30.05,29.99,10,8,5,7,1,,0.00,1,,227
2012-9-29,88,77,68,72,68,66,93,80,51,30.02,29.95,29.90,10,8,5,9,1,,0.00,3,Rain,235
2012-9-30,80,76,71,75,72,69,94,89,76,29.88,29.78,29.69,10,7,0,13,3,,0.67,6,Fog-Rain,159